[[{"header":{"parameterUnit":"m.s-1","parameterCategory":1,"la1":30.2991,"la2":30.254,"lo1":-89.0895,"lo2":-89.0444,"dx":0.0017,"dy":0.0017,"nx":28,"ny":28,"refTime":"2022-12-29T15:00:00:Z","depth":0,"parameterNumber":2,"parameterNumberName":"U-component_of_WINDS"},"data":[0,0,0,0,0,0,0,0,0,0,0,0,0,0,0,0,0,0,0,0,0,0,0,0,0,0,0,0,0,0,0,0,0,0,0,0,0,0,0,0,0,0,0,0,0,0,0,0,0,0,0,0,0,0,0,0,0,0,-4.9381,-4.9382,0,-4.947,-4.9471,-4.9472,-4.9447,-4.9445,-4.9444,-4.9442,-4.9531,-4.9535,-4.9539,0,0,0,0,0,0,0,0,0,0,0,0,0,-4.919,-4.9194,-4.9381,-4.9382,-4.9383,-4.947,-4.9471,-4.9472,-4.9447,-4.9445,-4.9443,-4.9441,-4.953,-4.9535,-4.954,0,0,0,0,0,0,0,0,0,0,0,0,0,-4.9276,-4.9195,-4.9381,-4.9381,-4.9382,-4.9469,-4.9471,-4.9472,-4.9448,-4.9445,-4.9442,-4.944,-4.9528,-4.9534,-4.954,-4.9632,0,0,-4.9559,-4.9562,0,0,0,0,0,0,0,0,-4.9271,-4.9283,-4.938,-4.9381,-4.9383,-4.9445,-4.9437,-4.9526,-4.9449,-4.9423,-4.9442,-4.9439,-4.9505,-4.9512,-4.9535,-4.9636,-4.964,-4.956,-4.9563,-4.9566,-4.9568,0,0,0,0,0,0,0,-4.9265,-4.9279,-4.9416,-4.9381,-4.9383,-4.9377,-4.9386,-4.9453,-4.9478,-4.9425,-4.9423,-4.9434,-4.9505,-4.9529,-4.9537,-4.9641,-4.9559,-4.9565,-4.9569,-4.9571,-4.9824,-4.9827,0,0,0,0,0,0,-4.9258,-4.9274,-4.9413,-4.9419,-4.9319,-4.9383,-4.9393,-4.9427,-4.9477,-4.9482,-4.9437,-4.9433,-4.952,-4.953,-4.954,-4.965,-4.9566,-4.9572,-4.9575,-4.9821,-4.9825,-4.9828,0,0,0,0,0,0,-4.9254,-4.9271,-4.9409,-4.9346,-4.9363,-4.9389,-4.9428,-4.9431,-4.9455,-4.9486,-4.949,-4.9457,-4.9518,-4.9531,-4.961,-4.9653,-4.9574,-4.958,-4.9817,-4.9822,-4.9826,-4.9872,0,0,0,0,0,0,-4.9249,-4.9269,-4.9304,-4.9347,-4.9367,-4.9477,-4.943,-4.9434,-4.9466,-4.9462,-4.9506,-4.9511,-4.9517,-4.9601,-4.9616,-4.966,-4.9585,-4.9813,-4.9819,-4.9825,-4.9867,-4.9878,-4.9887,0,0,0,0,0,-4.9242,-4.9313,-4.9306,-4.9323,-4.941,-4.948,-4.9491,-4.9498,-4.9469,-4.9504,-4.9525,-4.9509,-4.9647,-4.9609,-4.9626,-4.9672,-4.9811,-4.9818,-4.9824,-4.9862,-4.9875,-4.9887,0,0,0,0,0,0,-4.9272,-4.9318,-4.9311,-4.9397,-4.9435,-4.9476,-4.9519,-4.9511,-4.9557,-4.9551,-4.9558,-4.9568,-4.9648,-4.9669,-4.9626,-4.9765,-4.9725,-4.9735,-4.9748,-4.9761,-4.9771,-4.9762,-4.959,0,0,0,0,0,-4.929,-4.9342,-4.9379,-4.9452,-4.9472,-4.9493,-4.9523,-4.9526,-4.9565,-4.958,-4.9606,-4.9644,-4.9696,-4.973,-4.978,-4.9871,-4.988,-4.9912,-4.9922,-4.993,-4.9938,-4.9989,-5.0003,-4.9851,-4.9851,-4.985,0,0,-4.9324,-4.9356,-4.9388,-4.9459,-4.9489,-4.9543,-4.9506,-4.9565,-4.9606,-4.9589,-4.9664,-4.9685,-4.9729,-4.9814,-4.9853,-4.9834,-4.9983,-4.9939,-4.9945,-4.9949,-4.9997,-5.0012,-5.0025,-4.9855,-4.9854,-4.9854,0,0,-4.9415,-4.9445,-4.9509,-4.954,-4.9586,-4.9601,-4.9616,-4.9659,-4.9673,-4.9749,-4.9738,-4.9787,-4.9877,-4.9908,-4.9936,-5.0044,-5.0032,-5.0061,-5.0112,-5.0161,-5.0173,-5.0184,-5.0221,-5.0235,-5.0069,-5.0069,-5.007,0,-4.9452,-4.9534,-4.9543,-4.9604,-4.9635,-4.9625,-4.969,-4.972,-4.978,-4.9802,-4.978,-4.9894,-4.9922,-5.0015,-5.0042,-5.0066,-5.0084,-5.0053,-5.0171,-5.0182,-5.0192,-5.0228,-5.0242,-5.0072,-5.0072,-5.0072,-5.0072,0,-4.9577,-4.9635,-4.9681,-4.974,-4.9778,-4.984,-4.9859,-4.9896,-4.9897,-4.9914,-4.9993,-5.0028,-5.0084,-5.0108,-5.0108,-5.0202,-5.0188,-5.0169,-5.0128,-5.0209,-5.0243,-5.0257,-5.0077,-5.0076,-5.0075,-5.0074,0,0,-4.9684,-4.9751,-4.9767,-4.9795,-4.9847,-4.9891,-4.9955,-5.0012,-5.0043,-5.0087,-5.0139,-5.0218,-5.0201,-5.0233,-5.0238,-5.0282,-5.0365,-5.0257,-5.0258,-5.0274,-5.047,-5.0481,-5.0497,-5.0359,-5.0361,-5.0364,-5.0465,0,-4.9778,-4.9889,-4.9901,-5.0001,-5.0054,-5.0048,-5.0104,-5.0142,-5.0161,-5.0209,-5.0231,-5.0285,-5.026,-5.0279,-5.0323,-5.0345,-5.0403,-5.0339,-5.0407,-5.0409,-5.0393,-5.0515,-5.0527,-5.0621,-5.0479,-5.0481,-5.0483,0,-4.9901,-4.9949,-5.0054,-5.0101,-5.0124,-5.0173,-5.0227,-5.0274,-5.0319,-5.033,-5.0367,-5.0368,-5.0434,-5.0394,-5.0486,-5.0441,-5.0471,-5.0487,-5.0491,-5.0495,-5.0448,-5.052,-5.0651,-5.0664,-5.0504,-5.0502,-5.0501,0,-4.9967,-5.0058,-5.0133,-5.0157,-5.0214,-5.0249,-5.0274,-5.0316,-5.035,-5.0399,-5.0421,-5.0476,-5.0506,-5.0549,-5.0565,-5.0534,-5.0656,-5.0617,-5.0666,-5.0665,-5.0688,-5.0685,-5.0823,-5.0712,-5.0712,-5.0712,-5.0712,0,-5.0068,-5.0132,-5.0163,-5.0208,-5.0281,-5.0296,-5.0367,-5.0391,-5.0429,-5.048,-5.0479,-5.0527,-5.0546,-5.0597,-5.061,-5.0684,-5.0698,-5.0708,-5.071,-5.0706,-5.0705,-5.0723,-5.0716,-5.0716,-5.0715,-5.0714,-5.0713,0,-5.0151,-5.0175,-5.0256,-5.0305,-5.0319,-5.037,-5.0411,-5.0456,-5.0477,-5.0541,-5.0557,-5.0589,-5.0649,-5.067,-5.0743,-5.0753,-5.0838,-5.0836,-5.0822,-5.0822,-5.0869,-5.0863,-5.102,-5.1041,-5.0919,-5.092,-5.0921,0,-5.0213,-5.0262,-5.0317,-5.0351,-5.0378,-5.0434,-5.0469,-5.0488,-5.0525,-5.0582,-5.0619,-5.068,-5.0729,-5.0826,-5.0856,-5.0912,-5.091,-5.0962,-5.0918,-5.0913,-5.0908,-5.0904,-5.0909,-5.0968,-5.0969,-5.097,-5.0971,0,-5.0318,-5.0329,-5.038,-5.0437,-5.048,-5.0525,-5.0569,-5.0598,-5.0623,-5.0665,-5.0727,-5.0766,-5.0842,-5.0902,-5.0961,-5.0988,-5.0984,-5.0986,-5.1,-5.0994,-5.0983,-5.0988,-5.0841,-5.0981,-5.098,-5.0979,-5.0979,-5.0978,-5.0391,-5.0435,-5.0481,-5.0539,-5.0575,-5.0617,-5.0662,-5.0689,-5.0742,-5.0805,-5.0814,-5.0881,-5.0927,-5.1006,-5.1036,-5.1089,-5.1075,-5.1095,-5.11,-5.1104,-5.1107,-5.0979,-5.1101,-5.11,-5.11,-5.11,-5.11,0,-5.0495,-5.0526,-5.0579,-5.0642,-5.0688,-5.0684,-5.0733,-5.0772,-5.0831,-5.0875,-5.0924,-5.0997,-5.1057,-5.1093,-5.1153,-5.1188,-5.1188,-5.1203,-5.1199,-5.1205,-5.1117,-5.1098,-5.1202,-5.1202,-5.1202,-5.1202,-5.1202,-5.1202,-5.0554,-5.0628,-5.0645,-5.0737,-5.0768,-5.0834,-5.0863,-5.0902,-5.0937,-5.1019,-5.1068,-5.1093,-5.1134,-5.1198,-5.1252,-5.1262,-5.1283,-5.1299,-5.1306,-5.1222,-5.1211,-5.1201,-5.1183,-5.1304,-5.1304,-5.139,-5.1391,-5.1391]},{"header":{"parameterUnit":"m.s-1","parameterCategory":1,"la1":30.2991,"la2":30.254,"lo1":-89.0895,"lo2":-89.0444,"dx":0.0017,"dy":0.0017,"nx":28,"ny":28,"refTime":"2022-12-29T15:00:00:Z","depth":0,"parameterNumber":3,"parameterNumberName":"V-component_of_WINDS"},"data":[0,0,0,0,0,0,0,0,0,0,0,0,0,0,0,0,0,0,0,0,0,0,0,0,0,0,0,0,0,0,0,0,0,0,0,0,0,0,0,0,0,0,0,0,0,0,0,0,0,0,0,0,0,0,0,0,0,0,2.1899,2.1899,0,2.1913,2.1913,2.1913,2.1912,2.1912,2.1912,2.1912,2.1926,2.1927,2.1927,0,0,0,0,0,0,0,0,0,0,0,0,0,2.1873,2.1873,2.1899,2.1899,2.1899,2.1913,2.1913,2.1914,2.1912,2.1912,2.1912,2.1912,2.1926,2.1927,2.1927,0,0,0,0,0,0,0,0,0,0,0,0,0,2.1885,2.1874,2.1899,2.19,2.1901,2.1913,2.1913,2.1914,2.1912,2.1912,2.1912,2.1911,2.1926,2.1927,2.1928,2.1939,0,0,2.193,2.1931,0,0,0,0,0,0,0,0,2.1885,2.1886,2.19,2.19,2.1901,2.1911,2.191,2.1922,2.1913,2.1908,2.1912,2.1911,2.1921,2.1923,2.1926,2.194,2.1941,2.193,2.1931,2.1931,2.1931,0,0,0,0,0,0,0,2.1884,2.1886,2.1905,2.19,2.1901,2.1901,2.1902,2.1912,2.1916,2.1908,2.1908,2.191,2.1921,2.1925,2.1926,2.1941,2.193,2.1931,2.1932,2.1932,2.1969,2.1969,0,0,0,0,0,0,2.1883,2.1885,2.1904,2.1905,2.1892,2.1902,2.1903,2.1908,2.1916,2.1917,2.191,2.191,2.1924,2.1925,2.1927,2.1943,2.1931,2.1932,2.1933,2.1968,2.1969,2.197,0,0,0,0,0,0,2.1882,2.1884,2.1904,2.1895,2.1898,2.1903,2.1908,2.1908,2.1912,2.1918,2.1918,2.1913,2.1924,2.1926,2.1937,2.1944,2.1932,2.1933,2.1968,2.1969,2.1969,2.1975,0,0,0,0,0,0,2.1881,2.1884,2.1888,2.1895,2.1898,2.1913,2.1908,2.1909,2.1913,2.1913,2.192,2.1921,2.1923,2.1936,2.1938,2.1945,2.1934,2.1967,2.1968,2.1969,2.1974,2.1976,2.1977,0,0,0,0,0,2.188,2.1888,2.1888,2.189,2.1903,2.1913,2.1915,2.1917,2.1914,2.1918,2.1923,2.1921,2.1943,2.1937,2.1939,2.1946,2.1967,2.1968,2.1969,2.1974,2.1976,2.1977,0,0,0,0,0,0,2.1881,2.1889,2.1889,2.1899,2.1906,2.1913,2.1918,2.1919,2.1926,2.1925,2.1928,2.1929,2.1942,2.1945,2.1939,2.196,2.1954,2.1956,2.1957,2.1959,2.196,2.196,2.1935,0,0,0,0,0,2.1882,2.1889,2.1896,2.1905,2.1908,2.1913,2.1917,2.1919,2.1926,2.1928,2.1933,2.194,2.1949,2.1954,2.1962,2.1975,2.1978,2.1981,2.1983,2.1984,2.1985,2.1995,2.1998,2.1973,2.1973,2.1973,0,0,2.1885,2.189,2.1894,2.1905,2.191,2.1919,2.1915,2.1923,2.193,2.1929,2.1941,2.1945,2.1953,2.1966,2.1972,2.197,2.1993,2.1985,2.1986,2.1987,2.1997,2.1999,2.2001,2.1974,2.1973,2.1973,0,0,2.1894,2.1898,2.1907,2.1913,2.1921,2.1925,2.1927,2.1935,2.1938,2.195,2.195,2.1959,2.1973,2.1979,2.1984,2.2,2.2,2.2002,2.201,2.202,2.2022,2.2023,2.2031,2.2033,2.2004,2.2004,2.2004,0,2.1896,2.1909,2.1912,2.1921,2.1927,2.1928,2.1938,2.1943,2.1953,2.1958,2.1955,2.1974,2.198,2.1995,2.2,2.2003,2.2007,2.2002,2.2021,2.2023,2.2025,2.2032,2.2034,2.2004,2.2004,2.2004,2.2004,0,2.1912,2.1921,2.1928,2.1939,2.1945,2.1955,2.196,2.1967,2.1968,2.1973,2.1986,2.1993,2.2004,2.2007,2.2008,2.2024,2.2023,2.202,2.2015,2.2027,2.2034,2.2037,2.2005,2.2005,2.2005,2.2004,0,0,2.192,2.1935,2.1938,2.1944,2.1955,2.1962,2.1973,2.1984,2.199,2.1998,2.2008,2.2022,2.202,2.2026,2.2028,2.2037,2.2052,2.2034,2.2034,2.2038,2.2072,2.2075,2.2077,2.2051,2.2052,2.2052,2.2072,0,2.1932,2.1951,2.1955,2.1972,2.1982,2.1984,2.1994,2.2002,2.2007,2.2017,2.2022,2.2033,2.2029,2.2033,2.2042,2.2048,2.2059,2.2046,2.2062,2.2063,2.2061,2.2081,2.2082,2.2101,2.2074,2.2075,2.2075,0,2.1947,2.1957,2.1975,2.1987,2.1991,2.2,2.2012,2.2021,2.2031,2.2035,2.2043,2.2045,2.2058,2.2052,2.2071,2.2063,2.207,2.2074,2.2075,2.2077,2.207,2.2084,2.2106,2.2109,2.2079,2.2079,2.2078,0,2.1953,2.1971,2.1985,2.199,2.2004,2.201,2.2017,2.2027,2.2034,2.2045,2.205,2.2062,2.2069,2.2079,2.2085,2.208,2.2104,2.2098,2.2108,2.2108,2.2113,2.2113,2.2138,2.2116,2.2116,2.2116,2.2116,0,2.1966,2.1977,2.1988,2.1996,2.201,2.2016,2.2029,2.2036,2.2046,2.2056,2.2059,2.2069,2.2076,2.2088,2.2092,2.2109,2.2111,2.2115,2.2117,2.2116,2.2115,2.212,2.212,2.2117,2.2117,2.2116,2.2116,0,2.1975,2.1982,2.1998,2.2011,2.2015,2.2024,2.2036,2.2045,2.2051,2.2065,2.2069,2.2079,2.2093,2.21,2.2117,2.212,2.2139,2.2139,2.2136,2.2137,2.2147,2.2147,2.2177,2.2182,2.2156,2.2156,2.2156,0,2.1982,2.1991,2.2006,2.2014,2.2021,2.2033,2.2041,2.2049,2.2057,2.2072,2.208,2.2094,2.2106,2.2129,2.2138,2.2152,2.2153,2.2163,2.2155,2.2155,2.2155,2.2155,2.2157,2.2164,2.2164,2.2165,2.2165,0,2.1996,2.2,2.2012,2.2026,2.2036,2.2047,2.2058,2.2065,2.2074,2.2084,2.2099,2.2109,2.2128,2.2143,2.2158,2.2165,2.2167,2.2167,2.2171,2.217,2.2169,2.2171,2.2141,2.2166,2.2166,2.2166,2.2166,2.2166,2.2005,2.2015,2.2027,2.2041,2.2051,2.2062,2.2072,2.2081,2.2094,2.211,2.2114,2.2131,2.2144,2.2165,2.2173,2.2187,2.2185,2.2189,2.219,2.2192,2.2193,2.2166,2.2189,2.2189,2.2189,2.2189,2.2189,0,2.202,2.2029,2.2042,2.2059,2.2071,2.2072,2.2086,2.2095,2.211,2.2122,2.2135,2.2154,2.217,2.2181,2.2197,2.2206,2.2208,2.2211,2.221,2.2213,2.2193,2.2189,2.2209,2.2209,2.2209,2.2209,2.2209,2.2209,2.2029,2.2046,2.2052,2.2075,2.2084,2.2101,2.2109,2.212,2.213,2.2151,2.2165,2.2172,2.2185,2.2203,2.2218,2.2221,2.2228,2.2231,2.2234,2.2216,2.2213,2.2211,2.2208,2.2232,2.2232,2.2252,2.2253,2.2253]}]]